Terug naar catalogus

NOAA 16 DEB

ActiefSSO
NORAD 41516·DEBRIS·🇺🇸 United States

Gelanceerd Sep 21, 2000 vanaf Vandenberg Space Force Base

Loading…

Volgende Passages (komende 24 uur)

TLE

VersSource: Space-Track

Epoch: Sep 14, 2026, 11:27 UTC

1 41516U 00055MQ  26257.47735272  .00003089  00000-0  10627-2 0  9994
2 41516  98.6692 347.0818 0011968 236.6742 123.3298 14.36697132539462

Volg NOAA 16 DEB in realtime met AllMySat

Download on the App Store